Location: Ash Swamp
(41.5170°N, 74.6157°W)
Time: 17:20:54
(UTC+00:00)

Lacrosse 5 - Pass Details

Date: 14 July 2020
Orbit: 717 x 720 km, 57.0° (Epoch: 02 August)

Event Time Altitude Azimuth Distance (km) Brightness Sun altitude
Exits shadow 05:08:06 70° 303° (WNW) 764 1.9 -26.9°
Maximum altitude 05:08:15 71° 317° (NW) 761 2.0 -26.9°
Drops below altitude 10° 05:13:19 10° 42° (NE) 2,205 5.0 -26.8°
Sets 05:15:43 0° 44° (NE) 3,129 5.9 -26.8°
